Flag for Saudi Arabia Weather past 2 weeks in Riyadh, Saudi Arabia

Now
108 °F

Sunny.


Feels Like: 101 °F
Forecast: 86 / 108 °F
Wind: 10 mph from Northwest

Location: Riyadh Airport

Current Time: Sep 1, 2015 at 1:32:57 PM

Latest Report: Sep 1, 2015 at 12:00 PM


Visibility: 4 mi

Pressure: 29.83 "Hg (27.98 "Hg at 590m altitude)

Humidity: 8%

Dew point: 34 °F

Location of RiyadhLocation

Historic Weather in Riyadh — Graph

°F

Riyadh temperature yesterday

Maximum temperature yesterday: 111 °F (at 2:00 PM)
Minimum temperature yesterday: 93 °F (at 7:00 AM)
Average temperature yesterday: 107 °F

Past Weeks' High & Low Weather Summary

 TemperatureHumidityPressure
High113 °F (Aug 27, 2:30 PM)18% (Aug 23, 8:00 AM)29.86 "Hg (Aug 23, 8:00 AM)
Low90 °F (Aug 18, 5:00 AM)4% (Aug 17, 1:00 PM)29.68 "Hg (Aug 18, 4:00 PM)
Average104 °F9%29.77 "Hg
* Reported Aug 17 12:00 Noon — Sep 1 12:00 Noon, Riyadh, Weather by CustomWeather, © 2015

Note: Actual official high and low records may vary slightly from our data, if they occured in-between our weather recording intervals... More about our weather records

Advertising

Riyadh weather history for previous 24 hours

 ConditionsComfort  
Time TempWeatherWind HumidityBarometerVisibility
12:00 PM
Tue, Sep 1
108 °FSunny.10 mph8%29.83 "Hg4 mi
11:00 AM104 °FSunny.12 mph9%29.86 "Hg4 mi
10:00 AM100 °FSunny.12 mph10%29.86 "Hg4 mi
9:00 AM99 °FSunny.14 mph11%29.86 "Hg5 mi
8:00 AM99 °FSunny.9 mph12%29.83 "Hg5 mi
7:00 AM95 °FSunny.7 mph14%29.83 "Hg10 mi
6:00 AM91 °FSunny.13 mph16%29.80 "Hg10 mi
4:00 AM95 °FClear.5 mph14%29.77 "Hg10 mi
2:00 AM99 °FClear.6 mph11%29.77 "Hg10 mi
10:00 PM
Mon, Aug 31
104 °FClear.5 mph9%29.80 "Hg10 mi
9:00 PM104 °FClear.9 mph9%29.83 "Hg10 mi
8:00 PM108 °FClear.7 mph8%29.80 "Hg10 mi
7:00 PM108 °FClear.7 mph8%29.77 "Hg10 mi
6:00 PM109 °FSunny.9 mph7%29.77 "Hg10 mi
5:00 PM109 °FSunny.8 mph7%29.77 "Hg10 mi
4:30 PM111 °FSunny.12 mph7%29.77 "Hg10 mi
3:00 PM111 °FSunny.12 mph7%29.77 "Hg10 mi
2:00 PM111 °FSunny.8 mph7%29.77 "Hg10 mi
1:00 PM109 °FSunny.9 mph8%29.80 "Hg10 mi
Weather by CustomWeather, © 2015

See weather overviewHow to use our weather pages